CDT,Max TemperatureF,Mean TemperatureF,Min TemperatureF,Max Dew PointF,MeanDew PointF,Min DewpointF,Max Humidity, Mean Humidity, Min Humidity, Max Sea Level PressureIn, Mean Sea Level PressureIn, Min Sea Level PressureIn, Max VisibilityMiles, Mean VisibilityMiles, Min VisibilityMiles, Max Wind SpeedMPH, Mean Wind SpeedMPH, Max Gust SpeedMPH,PrecipitationIn, CloudCover, Events, WindDirDegrees
2013-10-1,89,74,60,73,66,55,100,80,51,29.97,29.91,29.86,10,8,0,13,6,20,0.00,1,Fog,154
2013-10-2,87,79,71,77,72,72,100,84,58,30.00,29.93,29.87,10,8,4,15,8,20,0.00,4,,164
2013-10-3,91,81,71,75,72,70,100,79,49,29.90,29.84,29.76,10,10,7,18,11,30,0.00,2,,183
2013-10-4,89,81,73,75,72,70,100,76,55,29.90,29.83,29.77,10,10,5,20,12,29,0.00,1,,184
2013-10-5,75,63,51,68,49,43,100,74,43,30.14,30.05,29.91,10,10,3,26,12,36,0.00,4,Rain,336
2013-10-6,71,58,46,48,43,37,94,60,29,30.11,30.06,30.03,10,10,10,21,9,26,0.00,0,,301
2013-10-7,77,62,46,54,45,41,93,59,29,30.20,30.14,30.07,10,9,1,8,5,,0.00,0,Rain,48
2013-10-8,78,63,48,55,51,46,94,69,39,30.14,30.07,30.01,10,9,2,13,6,18,0.00,0,,151
2013-10-9,82,66,51,61,57,52,100,77,48,30.08,30.03,29.99,10,10,7,16,7,20,0.00,0,,162
2013-10-10,82,70,59,64,61,57,94,74,48,30.05,29.97,29.87,10,10,5,16,8,22,0.00,0,,166
2013-10-11,86,75,64,72,67,61,94,78,55,29.87,29.84,29.79,10,10,7,18,12,29,0.00,2,,188
2013-10-12,77,68,60,72,58,52,100,71,44,30.16,30.04,29.86,10,9,7,13,7,20,0.00,2,Rain,46
2013-10-13,73,66,60,68,62,55,94,81,73,30.27,30.21,30.16,10,10,7,10,4,,0.00,7,,78
2013-10-14,69,66,62,70,65,63,100,96,83,30.19,30.04,29.90,10,7,1,16,7,21,0.00,7,Rain,148
2013-10-15,69,61,53,70,55,48,100,86,67,30.13,30.04,29.88,10,9,1,18,10,31,0.00,5,Rain,348
2013-10-16,60,52,44,50,46,43,100,83,59,30.18,30.12,30.07,10,10,7,13,6,18,0.00,2,Rain,353
2013-10-17,69,55,41,50,47,41,100,79,46,30.11,30.04,29.98,10,9,3,9,4,9,0.00,0,,261
2013-10-18,57,49,41,52,47,41,100,95,77,30.20,30.07,30.01,10,10,4,15,6,22,0.00,5,Rain,30
2013-10-19,68,50,33,45,40,34,100,79,37,30.19,30.11,30.02,10,10,5,9,5,,0.00,0,,254
2013-10-20,73,58,42,46,45,41,100,66,35,30.02,29.93,29.83,10,10,5,15,8,24,0.00,0,,192
2013-10-21,64,54,44,52,46,41,100,74,42,30.13,30.06,29.95,10,10,7,15,6,22,0.00,2,Rain,43
2013-10-22,75,58,42,48,45,41,100,68,36,30.13,30.07,30.02,10,10,10,15,7,23,0.00,1,,282
2013-10-23,73,58,44,54,48,43,100,72,43,30.18,30.10,30.00,10,10,5,12,5,17,0.00,0,,93
2013-10-24,60,53,46,52,43,36,100,73,45,30.40,30.28,30.09,10,9,5,12,6,21,0.00,0,,44
2013-10-25,59,48,37,45,40,36,93,73,55,30.47,30.37,30.23,10,10,7,12,6,17,0.00,2,,127
2013-10-26,68,59,50,63,54,45,100,88,76,30.22,30.15,30.10,10,10,7,8,5,,0.00,5,Rain,201
2013-10-27,69,55,41,59,44,36,100,70,28,30.14,30.08,29.98,10,10,3,8,4,,0.00,1,,308
2013-10-28,69,61,53,64,60,54,100,91,73,30.12,30.06,30.01,10,7,1,16,8,22,0.00,7,,169
2013-10-29,78,72,66,72,70,64,100,90,78,30.04,29.99,29.94,10,10,5,17,12,25,0.00,7,Rain,192
2013-10-30,73,68,64,72,69,64,100,97,88,29.98,29.89,29.74,10,9,2,18,10,31,0.00,8,Rain,181
2013-10-31,68,60,51,66,56,46,100,80,46,29.83,29.70,29.58,10,10,4,24,12,32,0.00,3,Rain,257